Content
SEND FEEDBACK

Daily
Averages
Monthly
Summary
Spain

MONTAŅA DE IZAŅA, SPAIN


Home > Europe > Spain
Elevation: 7766 feet     Latitude: 28 18N     Longitude: 016 30W

WEATHER
 
SELECT A DAY
Number of Records: 207,005;   Date Range: 7/1/96 - 8/30/14
 
SHARE

PRINT THIS DATA

[ ← Previous Day ]
WEATHER ALMANAC - FEBRUARY 13, 2013
[ Next Day → ]
[ °C ]   °F
Weather ElementAverageHighLow
Temperature55.2 °F59 °F (2:00 pm)51.8 °F (9:00 pm)
Dewpoint51.8 °F53.6 °F (11:00 am)50 °F (8:00 am)
Humidity88.7 %94 % (6:30 am)82 % (10:00 am)
Barometer30.18 in30.21 in (7:49 am)30.12 in (5:30 pm)
Wind Speed6.2 mph13.8 mph (5:30 pm)
Weather ElementAverage
Visibility5.5 mi
Wind DirectionSSE (153.3 °)

Weather ElementTotal
Precipitation---
Heating Degree Days9.6 (Base 65)
Growing Degree Days5.4 (Base 50)
Averaged from 36 records on February 13, 2013
WEATHER CONDITIONS BREAKOUT
WIND DIRECTION BREAKOUT
WEATHER BY HOUR - FEBRUARY 13, 2013
[ °C ]   °F
Local TimeTemperatureDewpointHumidityBarometerVisibilityWind DirectionWind SpeedGust SpeedPrecipitationEventsConditions
6:30 AM53.6 °F51.8 °F94 %30.18 in6.2 miNNE (20°)6.9 mphLight Drizzle
7:00 AM53.6 °F51.8 °F94 %30.18 in6.2 miVariable2.3 mphLight Drizzle
7:30 AM53.6 °F51.8 °F94 %30.18 in6.2 miVariable4.6 mphLight Drizzle
7:49 AM53.6 °F51.8 °F94 %30.21 in5.6 miNorth (10°)3.5 mphLight Drizzle
8:00 AM53.6 °F50.0 °F88 %30.21 in6.2 miNNE (20°)5.8 mphMostly Cloudy
8:30 AM53.6 °F51.8 °F94 %30.21 in5.0 miVariable2.3 mphMostly Cloudy
8:43 AM53.6 °F51.8 °F94 %30.21 in4.3 miVariable2.3 mphLight Drizzle
9:00 AM53.6 °F51.8 °F94 %30.21 in4.3 miVariable1.2 mphLight Drizzle
9:30 AM55.4 °F51.8 °F88 %30.21 in6.2 miNNE (30°)5.8 mphMostly Cloudy
10:00 AM55.4 °F50.0 °F82 %30.21 in6.2 miVariable2.3 mphMostly Cloudy
10:10 AM55.4 °F50.0 °F82 %30.21 in6.2 miNorth (350°)3.5 mphLight Drizzle
10:30 AM55.4 °F51.8 °F88 %30.21 in5.6 miNorth (360°)3.5 mphLight Drizzle
11:00 AM55.4 °F53.6 °F94 %30.21 in6.2 miNorth (10°)8.1 mphLight Drizzle
11:30 AM57.2 °F51.8 °F82 %30.21 in6.2 miNNE (20°)9.2 mphMostly Cloudy
12:00 PM57.2 °F51.8 °F82 %30.21 in6.2 miVariable4.6 mphLight Drizzle
12:30 PM57.2 °F53.6 °F88 %30.21 in5.0 miVariable2.3 mphLight Drizzle
1:00 PM57.2 °F51.8 °F82 %30.21 in6.2 miNorth (10°)6.9 mphMostly Cloudy
1:30 PM57.2 °F53.6 °F88 %30.18 in5.6 miNorth (10°)3.5 mphLight Drizzle
2:00 PM59.0 °F53.6 °F82 %30.18 in5.6 miNorth (10°)6.9 mphLight Drizzle
2:30 PM57.2 °F53.6 °F88 %30.15 in5.6 miNNW (340°)4.6 mphLight Drizzle
3:00 PM57.2 °F51.8 °F82 %30.15 in6.2 miVariable5.8 mphMostly Cloudy
3:30 PM57.2 °F51.8 °F82 %30.15 in6.2 miNorth (350°)9.2 mphMostly Cloudy
4:00 PM57.2 °F51.8 °F82 %30.15 in6.2 miNorth (350°)8.1 mphMostly Cloudy
4:30 PM55.4 °F51.8 °F88 %30.15 in5.6 miNNW (340°)9.2 mphFogLight Drizzle
5:00 PM55.4 °F51.8 °F88 %30.15 in5.6 miNorth (360°)10.4 mphMostly Cloudy
5:30 PM55.4 °F51.8 °F88 %30.12 in5.6 miNW (310°)13.8 mphDrizzle
6:00 PM55.4 °F51.8 °F88 %30.15 in5.6 miNNW (340°)9.2 mphMostly Cloudy
6:30 PM55.4 °F51.8 °F88 %30.15 in5.6 miNW (320°)9.2 mphRainLight Rain
7:00 PM55.4 °F51.8 °F88 %30.15 in2.5 miNW (310°)6.9 mphDrizzle
7:30 PM53.6 °F51.8 °F94 %30.15 in5.0 miNNW (340°)10.4 mphMostly Cloudy
8:00 PM53.6 °F51.8 °F94 %30.15 in3.7 miNorth (10°)6.9 mphRainLight Rain
8:30 PM53.6 °F51.8 °F94 %30.15 in1.9 miNNW (330°)5.8 mphRainRain
9:00 PM51.8 °F50.0 °F94 %30.18 in6.2 miVariable2.3 mphMostly Cloudy
9:30 PM53.6 °F51.8 °F94 %30.15 in6.2 miNW (320°)6.9 mphFogMostly Cloudy
10:00 PM53.6 °F50.0 °F88 %30.15 in6.2 miNW (320°)9.2 mphMostly Cloudy
10:30 PM53.6 °F50.0 °F88 %30.15 in6.2 miNNW (330°)10.4 mphMostly Cloudy
Hourly data recorded from GCXO, located miles away from Montaņa de Izaņa, Spain







STORIES FROM OUR PARTNERS